STARLINK-30038 (55696 NORAD) Tracking and Keplerian Element Data

This shows tracking and keplerian element data for the satellite.

Feedback or suggestion? Click here.




ElementValue
Catalog55696
NameSTARLINK-30038
Epoch Orbit130
Epoch Day62.91667824
Epoch Year2023
RAAN259.6544
Inclination43.01
Eccentricity0.0001714
Argument of Perigee279.5701
Mean Anonmoly164.7249
Mean Motion15.6287499
Decay Rate-0.00682305
L11 55696U 23026B 23062.91667824 -.00682305 00000+0 -79810-2 0 9992
L22 55696 43.0100 259.6544 0001714 279.5701 164.7249 15.62874990 1308



Live tracking and technical data element details for STARLINK-30038 (NORAD 55696). STARLINK-30038 can be tracked NOW for your location showing map with azimuth and elevation plus other details from your city location.







IsCatalogInMostPopularTable: catalog: 55696, numindb: 1
Update: records affected: 1



GetName: 55696 STARLINK-30038

Hit Count: updated at: Mon, 20 Mar 2023 13:27:41 GMT